FW6372 Weather Reports


time (UTC)temp
F
wind
direction
speed
knots
gust
knots
rain 1hr
in
rain 24hr
in
rain mn
in
humidity
%
barometer
mb
20260505021549 67 0 0.0 4.3 0.00 0.00 0.00 30 1005.6
20260505020052 68 0 0.9 7.0 0.00 0.00 0.00 29 1005.5
20260505014604 71 360 0.9 8.7 0.00 0.00 0.00 26 1005.3
20260505013053 76 0 0.0 2.6 0.00 0.00 0.00 20 1005.1
20260505011553 78 0 0.0 0.0 0.00 0.00 0.00 15 1005.1
20260505010055 78 0 0.0 0.0 0.00 0.00 0.00 16 1005.2
20260505004557 79 0 0.0 0.9 0.00 0.00 0.00 15 1005.2
20260505003058 79 0 0.0 0.9 0.00 0.00 0.00 15 1005.4
20260505001555 80 360 0.0 2.6 0.00 0.00 0.00 15 1005.4
20260505000058 81 0 0.0 0.0 0.00 0.00 0.00 14 1005.4
20260504234558 80 0 0.0 1.7 0.00 0.00 0.00 15 1005.4
20260504233055 79 0 0.0 1.7 0.00 0.00 0.00 15 1005.6
20260504231559 79 0 0.0 2.6 0.00 0.00 0.00 15 1005.6
20260504230056 80 0 0.0 1.7 0.00 0.00 0.00 13 1005.6
20260504224549 81 0 0.0 0.9 0.00 0.00 0.00 13 1005.8
20260504223051 80 0 0.0 1.7 0.00 0.00 0.00 13 1006.0
20260504221552 79 0 0.0 1.7 0.00 0.00 0.00 14 1006.1
20260504220049 80 0 0.0 2.6 0.00 0.00 0.00 15 1006.3
20260504214555 79 0 0.0 2.6 0.00 0.00 0.00 16 1006.6
20260504213055 80 0 0.0 1.7 0.00 0.00 0.00 15 1006.9
20260504211549 79 0 0.0 1.7 0.00 0.00 0.00 16 1007.1
20260504210059 79 0 0.0 1.7 0.00 0.00 0.00 16 1007.1
20260504204611 78 0 0.0 4.3 0.00 0.00 0.00 17 1007.3
20260504203115 78 0 0.0 1.7 0.00 0.00 0.00 18 1007.4
20260504201552 77 360 0.0 3.5 0.00 0.00 0.00 17 1007.5
20260504200053 78 0 0.0 1.7 0.00 0.00 0.00 20 1007.6
20260504194552 79 0 0.0 2.6 0.00 0.00 0.00 20 1007.7
20260504193053 78 0 0.0 1.7 0.00 0.00 0.00 20 1007.9
20260504191558 80 0 0.0 2.6 0.00 0.00 0.00 21 1008.0
20260504190056 80 0 0.0 2.6 0.00 0.00 0.00 22 1008.6
20260504184556 78 0 0.0 1.7 0.00 0.00 0.00 23 1008.9
20260504183058 76 0 0.0 0.9 0.00 0.00 0.00 24 1009.0
20260504181550 76 0 0.0 0.0 0.00 0.00 0.00 24 1009.2
20260504180115 73 0 0.0 0.0 0.00 0.00 0.00 25 1009.4
20260504174553 72 0 0.0 0.0 0.00 0.00 0.00 24 1009.6
20260504173102 73 0 0.0 0.0 0.00 0.00 0.00 24 1009.6
20260504171554 71 0 0.0 0.0 0.00 0.00 0.00 25 1009.6
20260504081558 51 0 0.0 0.0 0.00 0.00 0.00 46 1009.6
20260504044556 58 0 0.0 0.9 0.00 0.00 0.00 37 1010.3
20260504043056 59 0 0.0 0.9 0.00 0.00 0.00 34 1010.3
20260504041602 60 0 0.0 0.9 0.00 0.00 0.00 32 1010.2
20260504040054 61 0 0.0 0.0 0.00 0.00 0.00 30 1010.2
20260504034604 62 0 0.0 0.0 0.00 0.00 0.00 29 1010.2
20260504033050 63 0 0.0 0.0 0.00 0.00 0.00 29 1010.2
20260504031549 64 0 0.0 0.0 0.00 0.00 0.00 28 1010.1
20260504030048 65 0 0.0 0.0 0.00 0.00 0.00 27 1010.0
20260504024553 66 0 0.0 0.0 0.00 0.00 0.00 25 1009.9
20260504023051 68 0 0.0 0.0 0.00 0.00 0.00 24 1009.8